TimeMDT,TemperatureF,Dew PointF,Humidity,Sea Level PressureIn,VisibilityMPH,Wind Direction,Wind SpeedMPH,Gust SpeedMPH,PrecipitationIn,Events,Conditions,WindDirDegrees,DateUTC
12:53 AM,54.0,39.9,59,29.54,10.0,Calm,Calm,-,N/A,,Overcast,0,2013-09-23 06:53:00
1:53 AM,57.0,37.0,47,29.55,10.0,WNW,11.5,-,N/A,,Overcast,290,2013-09-23 07:53:00
2:53 AM,57.0,34.0,42,29.57,10.0,NW,10.4,-,N/A,,Mostly Cloudy,320,2013-09-23 08:53:00
3:53 AM,55.0,32.0,42,29.60,10.0,North,5.8,-,N/A,,Partly Cloudy,360,2013-09-23 09:53:00
4:53 AM,51.1,33.1,50,29.62,10.0,Calm,Calm,-,N/A,,Clear,0,2013-09-23 10:53:00
5:53 AM,50.0,33.1,52,29.67,10.0,WNW,4.6,-,N/A,,Clear,290,2013-09-23 11:53:00
6:53 AM,48.0,32.0,54,29.71,10.0,West,5.8,-,N/A,,Clear,260,2013-09-23 12:53:00
7:53 AM,48.9,30.9,50,29.76,10.0,West,8.1,19.6,N/A,,Clear,270,2013-09-23 13:53:00
8:53 AM,55.0,34.0,45,29.75,10.0,North,13.8,-,N/A,,Clear,350,2013-09-23 14:53:00
9:53 AM,57.9,35.1,42,29.76,10.0,NNW,5.8,-,N/A,,Clear,330,2013-09-23 15:53:00
10:53 AM,62.1,32.0,32,29.77,10.0,North,8.1,-,N/A,,Clear,350,2013-09-23 16:53:00
11:53 AM,63.0,30.9,30,29.77,10.0,WNW,8.1,-,N/A,,Partly Cloudy,300,2013-09-23 17:53:00
12:53 PM,64.9,30.9,28,29.77,10.0,NW,12.7,16.1,N/A,,Partly Cloudy,320,2013-09-23 18:53:00
1:53 PM,64.9,30.0,27,29.76,10.0,North,10.4,16.1,N/A,,Clear,350,2013-09-23 19:53:00
2:53 PM,66.0,28.9,25,29.75,10.0,Variable,3.5,-,N/A,,Clear,0,2013-09-23 20:53:00
3:53 PM,66.9,28.9,24,29.76,10.0,NW,8.1,-,N/A,,Clear,320,2013-09-23 21:53:00
4:53 PM,66.9,28.9,24,29.78,10.0,Variable,3.5,-,N/A,,Clear,0,2013-09-23 22:53:00
5:53 PM,66.0,30.0,26,29.80,10.0,Calm,Calm,-,N/A,,Clear,0,2013-09-23 23:53:00
6:53 PM,61.0,30.9,32,29.83,10.0,SSW,4.6,-,N/A,,Clear,200,2013-09-24 00:53:00
7:53 PM,59.0,24.1,26,29.85,10.0,SW,8.1,-,N/A,,Clear,220,2013-09-24 01:53:00
8:53 PM,55.0,28.0,35,29.88,10.0,North,8.1,-,N/A,,Clear,350,2013-09-24 02:53:00
9:53 PM,54.0,28.0,37,29.90,10.0,North,3.5,-,N/A,,Clear,350,2013-09-24 03:53:00
10:53 PM,54.0,27.0,35,29.90,10.0,NW,5.8,-,N/A,,Clear,310,2013-09-24 04:53:00
11:53 PM,51.1,28.0,41,29.92,10.0,Calm,Calm,-,N/A,,Clear,0,2013-09-24 05:53:00